Regional Weather Roundup
Issued by NWS Burlington, VT

Current Version | Previous Version | Graphics & Text | Print | Product List | Glossary Off
Versions: 1 2 3 4 5 6 7 8 9 10 11 12 13 14 15 16 17 18 19 20 21 22 23 24 25 26 27

000
ASUS41 KBTV 250210
RWRBTV
VERMONT REGIONAL WEATHER ROUNDUP
NATIONAL WEATHER SERVICE BURLINGTON VT
1000 PM EDT FRI OCT 24 2014

NOTE: "FAIR" INDICATES FEW OR NO CLOUDS BELOW 12,000 FEET WITH NO
SIGNIFICANT WEATHER AND/OR OBSTRUCTIONS TO VISIBILITY.

* THESE REPORTS ARE NOT UNDER NWS QUALITY CONTROL AND/OR DO NOT
  REPORT WEATHER SUCH AS PRECIPITATION AND FOG.

VTZ001>019-250300-
_____VERMONT_____


CITY           SKY/WX    TMP DP  RH WIND       PRES   REMARKS
BURLINGTON     CLOUDY    44  40  85 CALM      29.84F
MONTPELIER     CLOUDY    44  38  79 CALM      29.84F
MORRISVILLE    CLOUDY    44  40  85 CALM      29.83F
ST. JOHNSBURY*   N/A     44  39  82 MISG      29.79F
LYNDONVILLE*   CLOUDY    43  34  70 N3        29.81F
MIDDLEBURY*    CLOUDY    44  44 100 CALM      29.84S
RUTLAND*       CLOUDY    45  39  81 CALM      29.84S
SPRINGFIELD    CLOUDY    46  40  79 W7        29.80S
HIGHGATE*      MOCLDY    40  38  95 CALM      29.83S
NEWPORT*       FAIR      37  34  89 NW3       29.81F
BENNINGTON     CLOUDY    47  40  76 NW6       29.84S
SUTTON*          N/A     39 N/A N/A MISG        N/A

_____LAKE CHAMPLAIN_____


CITY           SKY/WX    TMP DP  RH WIND       PRES   REMARKS
COLCHESTER RF*   N/A     50  43  76 S2          N/A
DIAMOND ISL*     N/A     46  43  87 E5          N/A

$$

NYZ007-026>031-035-052-083-250300-
_____NORTHERN NEW YORK_____


CITY           SKY/WX    TMP DP  RH WIND       PRES   REMARKS
PLATTSBURGH    PTCLDY    44  42  93 CALM      29.82F
SARANAC LAKE   CLOUDY    39  38  96 S6        29.84S
MASSENA        CLOUDY    48  43  82 SW9       29.85S
OGDENSBURG*    CLEAR     45  43  93 CALM      29.85S
POTSDAM*       CLEAR     46  45  93 SW5       29.85F
WATERTOWN      PTCLDY    49  43  80 S5        29.87F
FT DRUM        CLEAR     49  46  92 SW10      29.86F
ALBANY         CLOUDY    47  44  90 N6        29.87S
GLENS FALLS    CLOUDY    46  44  93 W3        29.86S

$$
NHZ002-005-011-250300-
_____NEW HAMPSHIRE_____


CITY           SKY/WX    TMP DP  RH WIND       PRES   REMARKS
LEBANON        PTCLDY    47  39  74 N3        29.79S
KEENE          CLOUDY    48  36  61 N7        29.78S
MT WASHINGTON  FOG       30  30 100 N41G48      N/A  VSB 1/16WCI  13
PLYMOUTH       CLOUDY    47  44  90 CALM      29.74S
WHITEFIELD     CLOUDY    43  40  89 S3        29.79S

$$

_____REGIONAL QUEBEC LOCATIONS_____


CITY           SKY/WX    TMP DP  RH WIND       PRES   REMARKS
MONTREAL       PTCLDY    46  39  76 SW6       29.81F
QUEBEC CITY    PTCLDY    41  34  75 W6        29.79F
SHERBROOKE       N/A     41  34  75 NW5       29.80S

_____REGIONAL ONTARIO LOCATIONS_____


CITY           SKY/WX    TMP DP  RH WIND       PRES   REMARKS
OTTAWA         CLEAR     48  37  66 W9        29.83F

______KEY______
VSB  - VISIBILITY IN MILES
WCI  - WIND CHILL INDEX
HX   - HEAT INDEX
$$
NNNN



USA.gov is the U.S. government's official web portal to all federal, state and local government web resources and services.